Vorticity
19 13 8 10 10 10 8 7 6 8 9 9 6 8 14 22 10 14 12 17 12 8 -4 13 24 -2 14 4 4 -7 15 18 11 25 23 7 13 -1 33 -11 30 0 7 33 11 11 23 10 -1 3 36 -23 7 26
8 7 11 14 15 15 14 14 14 14 14 13 13 19 18 3 16 13 17 15 2 20 3 27 -2 16 30 23 10 8 -23 24 30 21 22 29 19 -18 4 11 15 0 6 8 -20 -14 -10 28 10 20 12 30 3 18
18 16 13 13 13 16 17 17 12 13 16 15 12 17 15 19 19 4 5 10 19 -0 19 13 1 17 10 6 11 13 15 10 -20 5 6 15 8 21 14 -12 24 7 -5 -11 -5 13 14 13 9 34 24 17 46 -19
14 11 14 18 12 15 15 18 22 23 19 13 6 10 16 17 12 13 6 7 7 -2 -6 -4 30 3 27 27 9 15 6 11 16 6 -0 -3 4 12 14 2 4 0 10 8 11 -12 21 8 4 -1 44 28 -23 -4
16 13 16 20 15 21 28 28 28 25 15 23 25 12 13 9 29 17 10 4 2 8 4 58 21 -4 -7 -1 11 16 6 3 -31 -20 0 1 29 5 2 13 7 14 6 14 17 19 16 17 29 3 -10 47 12 6
16 20 25 22 25 18 21 32 33 27 26 23 20 23 26 8 22 14 18 17 9 11 11 -18 -2 61 37 26 38 9 13 16 23 10 18 15 -5 3 18 30 16 32 7 -0 3 -5 0 -6 15 9 21 16 6 -12
14 23 17 31 17 30 29 45 75 78 27 24 17 31 29 25 20 11 -3 29 -1 11 3 27 14 60 -35 26 17 9 4 -7 -0 15 22 9 9 18 7 7 12 32 24 17 22 13 3 -9 -3 29 9 7 16 17
14 13 26 24 26 18 30 36 46 37 26 36 48 7 43 22 8 7 -8 17 42 1 5 17 25 44 -0 18 17 13 10 10 34 52 29 10 4 1 15 10 31 17 -0 18 14 1 23 18 6 12 -3 7 13 8
19 20 19 23 17 13 4 13 17 25 41 49 29 28 24 9 19 12 -21 7 43 6 -26 13 -4 32 21 17 11 12 1 13 -8 12 10 10 7 -6 1 12 5 49 8 4 -2 -3 19 13 19 10 7 2 -1 3
10 13 19 24 25 18 23 20 19 18 18 11 7 25 27 -2 23 -32 10 18 16 12 5 3 -24 25 26 -2 3 -6 20 2 14 19 25 17 1 6 12 11 18 9 24 7 1 -1 -0 8 9 17 20 18 24 17
17 13 18 17 8 30 21 18 24 26 23 19 -0 15 14 14 25 -18 14 -9 14 30 31 36 35 12 16 6 8 -3 5 11 12 26 1 19 26 21 24 19 9 17 25 16 15 1 -0 12 9 -0 5 14 5 9
3 4 13 17 18 22 7 6 16 4 7 7 10 10 15 -15 17 19 19 8 19 17 9 12 14 26 22 -3 2 9 5 14 11 17 0 21 16 24 16 8 31 16 1 11 22 34 13 12 10 14 11 7 13 11
8 9 21 14 6 11 3 10 18 16 19 20 -4 -32 -35 14 15 11 11 18 24 27 20 7 7 1 22 -16 12 5 10 11 12 12 5 -8 7 14 24 20 24 15 11 -3 14 17 17 18 12 8 12 17 10 9
8 20 8 24 -6 6 -3 35 38 -15 -23 -13 4 13 12 12 14 35 6 21 17 15 18 3 -2 -6 -9 8 9 7 9 6 9 7 -3 2 10 21 27 13 1 5 12 55 -7 17 19 18 14 3 40 24 3 -1
7 6 22 16 10 30 5 1 18 16 -6 4 6 8 25 30 15 16 7 2 14 9 14 18 22 -22 28 -7 20 8 9 15 13 24 10 21 3 27 23 10 9 -11 20 15 18 56 9 24 40 5 13 5 8 12
7 8 19 3 15 -9 -22 -18 8 19 23 11 31 25 9 5 15 6 10 11 10 22 25 -2 27 25 -1 5 14 6 6 10 13 25 16 20 23 18 19 5 -7 4 15 2 39 -8 -1 -4 -2 18 20 18 23 20
18 15 15 22 10 -4 -11 -4 6 14 17 20 10 7 13 12 6 10 9 8 9 20 0 -3 16 7 11 19 15 12 3 6 15 11 21 20 21 9 5 2 13 9 8 5 3 7 8 6 16 17 22 36 29 21
7 11 13 12 8 16 7 6 9 27 25 8 3 8 2 8 21 17 16 16 3 9 -9 -7 2 16 5 9 15 12 15 14 15 20 18 18 17 15 8 4 10 9 5 12 25 8 29 38 33 31 29 15 8 6
8 8 8 4 15 14 -1 10 3 15 16 7 1 20 18 25 11 12 12 17 16 4 11 22 9 24 22 17 16 24 23 23 20 20 18 14 9 11 11 10 9 18 25 23 27 33 23 14 13 9 7 3 4 5
8 6 6 8 5 17 5 22 3 7 9 10 15 17 14 18 15 12 10 9 16 21 16 30 23 9 12 13 16 19 22 23 21 25 24 20 21 24 28 29 31 33 30 16 11 8 7 6 4 4 6 7 10 7
4 6 12 19 19 14 14 10 13 10 4 12 18 30 20 13 16 21 19 19 22 41 19 4 7 6 11 17 18 21 23 22 22 25 31 24 23 30 29 22 13 9 9 7 9 3 3 5 7 8 10 6 6 6
20 17 21 10 8 12 17 31 28 19 19 7 5 2 4 16 25 38 32 20 19 6 4 7 12 15 17 11 12 16 21 24 27 26 23 19 12 8 7 6 7 8 5 3 4 6 7 7 7 7 7 7 8 9
34 22 4 11 -3 10 10 -3 1 8 14 8 9 10 20 21 10 -13 23 15 5 7 6 1 3 9 17 12 13 16 16 21 16 10 7 7 7 8 9 5 4 6 8 7 7 8 7 7 7 8 8 9 9 9
25 21 5 16 23 26 13 17 8 8 17 6 16 9 1 23 25 30 8 3 10 6 7 7 6 7 15 13 16 14 12 14 11 9 8 10 9 5 3 3 3 6 6 7 8 7 7 7 8 9 9 9 10 10
6 15 7 14 10 13 12 18 21 19 9 11 20 15 14 23 29 14 11 12 8 8 6 5 5 7 12 17 14 12 13 12 13 10 9 6 7 9 6 6 7 7 7 7 7 8 8 9 9 9 10 11 11 9
12 22 19 12 10 7 14 4 12 10 9 9 13 12 7 6 12 20 9 11 12 13 13 12 10 10 13 17 16 14 11 9 11 11 7 4 5 5 6 7 5 6 6 7 8 9 9 10 10 10 10 9 10 12
10 7 16 10 9 5 6 14 16 12 9 10 8 12 11 14 15 26 9 10 12 12 13 14 13 12 14 16 14 12 11 9 4 7 10 8 6 7 10 10 8 7 6 7 8 10 10 10 11 11 11 12 11 10
22 11 13 10 19 17 9 12 7 5 7 7 16 18 11 19 29 13 14 12 13 13 13 14 16 13 13 14 14 14 12 8 7 6 8 9 11 12 12 10 8 7 8 9 11 11 11 11 12 11 11 10 10 9
15 15 16 9 7 9 11 16 17 13 13 15 17 20 21 19 14 10 11 13 15 16 15 14 14 10 10 9 9 9 10 11 9 7 8 10 10 8 8 7 8 9 10 11 11 11 11 10 10 12 12 11 10 9
13 15 14 12 13 13 14 15 11 11 12 14 16 20 21 18 13 13 11 12 12 12 12 10 11 10 9 9 10 10 9 10 11 11 13 12 11 10 8 8 9 10 11 10 10 11 11 11 12 13 12 10 8 9
10 10 17 16 14 9 8 9 12 14 14 18 18 15 16 21 18 13 11 10 10 9 8 8 7 8 9 9 10 11 12 12 13 15 15 14 12 9 7 7 10 11 11 12 12 11 11 12 13 13 11 9 9 11
9 8 14 14 8 6 9 10 9 12 11 11 10 13 13 16 15 16 12 12 10 10 10 10 11 11 10 11 11 11 13 12 15 13 13 12 8 8 11 12 12 12 12 12 11 11 12 13 14 12 10 9 11 11
6 7 6 8 8 6 6 13 10 5 5 9 9 8 9 13 15 14 16 13 14 13 13 13 12 12 12 12 11 12 14 16 15 11 9 9 11 12 12 12 12 12 12 12 13 14 13 14 11 9 9 11 11 10
Height
2831 2830 2830 2829 2829 2830 2831 2833 2836 2839 2843 2848 2853 2859 2865 2873 2881 2888 2893 2899 2905 2907 2913 2918 2926 2932 2940 2948 2952 2959 2963 2962 2964 2966 2968 2969 2969 2970 2970 2974 2974 2975 2975 2973 2974 2977 2976 2974 2974 2976 2976 2980 2980 2981
2821 2820 2819 2818 2817 2817 2817 2819 2822 2826 2830 2835 2841 2848 2856 2865 2872 2880 2885 2892 2900 2902 2905 2911 2918 2925 2932 2941 2949 2951 2955 2956 2959 2960 2962 2964 2965 2967 2967 2966 2972 2973 2971 2970 2977 2975 2972 2970 2971 2973 2973 2977 2980 2980
2811 2809 2807 2805 2804 2803 2803 2804 2806 2810 2816 2822 2829 2836 2845 2854 2863 2871 2878 2885 2892 2896 2900 2903 2906 2918 2926 2933 2939 2943 2945 2952 2953 2955 2958 2960 2959 2962 2963 2963 2963 2965 2966 2968 2971 2969 2970 2971 2971 2970 2972 2972 2972 2977
2802 2799 2796 2793 2791 2789 2787 2787 2789 2793 2799 2807 2816 2825 2834 2844 2854 2863 2870 2875 2886 2892 2894 2896 2902 2907 2918 2924 2931 2934 2940 2943 2948 2951 2953 2953 2955 2957 2958 2959 2960 2962 2964 2965 2964 2964 2966 2966 2968 2967 2969 2969 2968 2971
2794 2790 2785 2782 2778 2774 2771 2769 2770 2774 2782 2790 2801 2813 2825 2836 2846 2857 2866 2871 2879 2890 2891 2893 2898 2905 2913 2917 2922 2926 2932 2936 2940 2944 2944 2947 2948 2953 2952 2954 2951 2953 2956 2958 2958 2962 2964 2964 2965 2964 2960 2964 2965 2966
2788 2783 2778 2772 2768 2763 2757 2752 2749 2754 2764 2777 2789 2802 2816 2830 2841 2852 2861 2867 2874 2885 2891 2892 2891 2892 2902 2909 2914 2920 2926 2931 2935 2935 2937 2939 2943 2947 2944 2940 2945 2948 2951 2953 2954 2958 2958 2958 2960 2960 2957 2959 2961 2964
2785 2780 2774 2767 2763 2756 2748 2735 2725 2732 2753 2768 2781 2795 2811 2824 2835 2845 2853 2858 2869 2880 2886 2890 2888 2888 2897 2904 2908 2914 2919 2924 2927 2929 2930 2933 2938 2939 2934 2930 2937 2940 2943 2945 2949 2951 2952 2955 2955 2955 2955 2955 2957 2959
2784 2779 2774 2768 2764 2759 2751 2743 2739 2743 2755 2766 2778 2795 2809 2825 2839 2849 2856 2862 2869 2878 2885 2887 2883 2885 2893 2896 2901 2908 2913 2918 2919 2921 2922 2926 2931 2930 2923 2922 2929 2935 2936 2938 2942 2945 2947 2949 2950 2953 2952 2953 2953 2954
2786 2782 2777 2773 2770 2767 2764 2760 2759 2760 2764 2770 2785 2801 2814 2828 2838 2850 2859 2864 2868 2877 2878 2878 2873 2880 2886 2892 2899 2904 2909 2913 2915 2915 2918 2922 2921 2914 2916 2921 2923 2927 2931 2934 2937 2940 2942 2944 2946 2949 2951 2950 2953 2952
2791 2788 2783 2780 2778 2776 2775 2775 2775 2778 2783 2790 2799 2810 2822 2833 2843 2852 2861 2866 2871 2874 2876 2876 2877 2879 2885 2890 2894 2896 2902 2908 2910 2912 2914 2911 2905 2910 2914 2916 2919 2923 2925 2929 2932 2935 2937 2940 2943 2945 2946 2947 2949 2950
2800 2796 2793 2790 2789 2789 2789 2790 2791 2793 2798 2805 2809 2818 2829 2840 2851 2860 2863 2866 2869 2872 2873 2875 2876 2880 2885 2889 2892 2898 2901 2904 2905 2908 2908 2902 2896 2903 2906 2909 2913 2916 2919 2922 2925 2929 2933 2937 2939 2940 2941 2941 2943 2944
2809 2806 2804 2802 2801 2802 2804 2806 2807 2808 2810 2814 2819 2830 2839 2848 2853 2855 2859 2861 2864 2867 2870 2873 2877 2881 2884 2889 2894 2898 2899 2901 2900 2901 2902 2894 2893 2899 2900 2902 2904 2907 2912 2915 2919 2922 2926 2930 2933 2934 2934 2935 2937 2938
2816 2815 2814 2814 2814 2814 2816 2817 2820 2823 2826 2830 2835 2841 2844 2849 2852 2852 2855 2858 2859 2862 2868 2873 2878 2882 2885 2889 2892 2894 2894 2896 2896 2895 2890 2886 2891 2893 2894 2897 2898 2902 2908 2913 2913 2915 2919 2923 2926 2927 2929 2931 2933 2934
2821 2822 2822 2822 2823 2824 2826 2827 2829 2833 2836 2839 2839 2840 2843 2845 2847 2850 2854 2856 2859 2862 2867 2872 2876 2879 2882 2885 2887 2889 2890 2891 2889 2886 2881 2884 2886 2887 2890 2892 2895 2899 2901 2904 2908 2911 2914 2917 2919 2921 2924 2923 2928 2930
2828 2828 2828 2829 2830 2832 2833 2836 2838 2840 2841 2841 2842 2843 2846 2847 2849 2852 2854 2858 2860 2863 2866 2870 2874 2878 2880 2883 2883 2884 2884 2882 2879 2876 2877 2881 2883 2884 2887 2891 2893 2896 2899 2902 2905 2904 2910 2912 2908 2915 2920 2921 2923 2925
2832 2833 2834 2835 2836 2838 2839 2842 2844 2845 2844 2844 2845 2848 2849 2852 2853 2854 2856 2859 2862 2863 2866 2870 2873 2875 2877 2877 2877 2877 2876 2874 2873 2872 2873 2875 2878 2882 2885 2888 2892 2894 2897 2901 2901 2904 2907 2909 2912 2914 2915 2917 2919 2921
2836 2837 2838 2840 2841 2842 2843 2844 2845 2844 2844 2847 2849 2851 2852 2853 2854 2855 2858 2860 2862 2865 2867 2869 2870 2871 2871 2870 2871 2870 2869 2869 2869 2869 2870 2873 2877 2881 2884 2888 2890 2892 2896 2898 2902 2904 2906 2907 2909 2911 2911 2913 2916 2919
2840 2841 2842 2843 2844 2846 2847 2848 2849 2848 2848 2850 2852 2852 2853 2853 2854 2855 2857 2859 2862 2864 2865 2865 2866 2866 2866 2865 2865 2865 2865 2865 2864 2866 2869 2871 2875 2878 2882 2886 2888 2891 2894 2897 2899 2901 2903 2904 2907 2910 2912 2915 2918 2920
2843 2844 2844 2845 2846 2847 2849 2851 2851 2851 2853 2854 2854 2853 2852 2853 2854 2855 2857 2859 2860 2862 2864 2863 2864 2863 2863 2863 2863 2862 2863 2863 2864 2864 2867 2869 2873 2877 2881 2883 2886 2888 2891 2894 2897 2900 2903 2907 2911 2913 2915 2917 2920 2921
2845 2845 2846 2847 2848 2849 2850 2851 2853 2853 2855 2856 2855 2854 2854 2854 2855 2855 2856 2857 2858 2859 2860 2861 2863 2864 2864 2864 2863 2862 2862 2863 2864 2866 2868 2870 2873 2877 2881 2885 2888 2891 2895 2898 2901 2904 2908 2911 2913 2915 2917 2918 2920 2922
2846 2846 2847 2848 2848 2850 2850 2852 2853 2855 2856 2857 2857 2856 2854 2855 2855 2855 2855 2856 2857 2857 2860 2865 2866 2867 2867 2866 2865 2865 2865 2864 2866 2869 2871 2872 2875 2881 2885 2889 2894 2897 2901 2904 2906 2908 2911 2913 2914 2915 2918 2919 2920 2921
2844 2846 2847 2848 2849 2850 2853 2854 2856 2856 2859 2859 2859 2859 2859 2859 2858 2857 2857 2856 2857 2863 2867 2869 2870 2870 2870 2869 2869 2869 2870 2871 2872 2874 2877 2880 2883 2888 2892 2896 2900 2902 2905 2907 2909 2911 2912 2914 2916 2918 2919 2920 2920 2920
2843 2845 2848 2849 2850 2855 2859 2859 2859 2860 2861 2862 2862 2862 2862 2862 2862 2863 2863 2862 2865 2867 2870 2873 2875 2875 2875 2874 2875 2875 2876 2879 2881 2883 2886 2889 2892 2895 2898 2900 2904 2907 2909 2910 2911 2912 2915 2916 2917 2918 2918 2918 2917 2917
2847 2848 2849 2850 2852 2856 2859 2860 2860 2861 2862 2863 2864 2865 2865 2865 2865 2866 2866 2869 2870 2872 2874 2876 2878 2879 2879 2879 2880 2881 2882 2885 2888 2890 2892 2896 2898 2900 2902 2904 2906 2908 2910 2912 2913 2914 2915 2915 2915 2915 2915 2915 2915 2914
2852 2854 2856 2856 2857 2860 2860 2862 2862 2864 2865 2867 2867 2868 2869 2869 2869 2871 2872 2873 2874 2875 2876 2878 2879 2881 2882 2884 2885 2886 2887 2889 2893 2895 2897 2899 2902 2904 2906 2907 2908 2910 2911 2912 2913 2914 2914 2914 2913 2913 2913 2913 2913 2912
2854 2857 2860 2861 2863 2864 2865 2866 2867 2867 2868 2868 2870 2870 2871 2872 2872 2875 2877 2877 2878 2878 2879 2880 2881 2882 2884 2885 2887 2889 2891 2892 2895 2898 2900 2901 2903 2904 2906 2907 2909 2910 2911 2912 2912 2912 2912 2912 2912 2911 2911 2910 2909 2909
2862 2866 2866 2865 2866 2867 2867 2868 2869 2869 2869 2870 2870 2870 2871 2872 2874 2877 2878 2878 2879 2880 2881 2882 2883 2884 2885 2887 2889 2891 2893 2894 2896 2900 2901 2902 2904 2905 2906 2907 2908 2910 2910 2911 2911 2911 2911 2911 2910 2909 2909 2908 2908 2907
2868 2869 2870 2871 2870 2870 2870 2870 2871 2872 2873 2874 2873 2873 2873 2874 2877 2878 2879 2880 2881 2882 2883 2884 2885 2886 2888 2891 2892 2894 2896 2897 2899 2901 2902 2904 2904 2905 2906 2906 2907 2908 2908 2909 2909 2908 2908 2908 2908 2907 2906 2906 2906 2905
2871 2872 2873 2873 2874 2873 2873 2874 2875 2876 2876 2875 2875 2874 2875 2876 2877 2879 2880 2882 2884 2885 2886 2888 2889 2889 2891 2892 2894 2895 2897 2898 2899 2900 2901 2902 2903 2904 2904 2905 2906 2906 2906 2906 2905 2905 2905 2904 2905 2905 2904 2903 2902 2901
2875 2876 2877 2877 2876 2876 2878 2879 2879 2879 2879 2878 2878 2878 2878 2878 2880 2881 2883 2884 2885 2886 2888 2889 2890 2891 2892 2894 2895 2896 2897 2898 2899 2900 2900 2900 2901 2902 2902 2903 2904 2903 2903 2903 2903 2902 2902 2902 2901 2901 2900 2899 2898 2896
2881 2882 2882 2881 2881 2882 2883 2884 2883 2883 2883 2882 2881 2882 2882 2882 2882 2883 2884 2885 2886 2887 2889 2890 2891 2892 2893 2894 2895 2895 2896 2897 2897 2898 2898 2898 2898 2899 2900 2901 2901 2901 2901 2900 2900 2900 2899 2898 2898 2897 2896 2895 2893 2892
2885 2886 2886 2885 2886 2887 2887 2887 2887 2887 2886 2886 2886 2886 2885 2885 2886 2886 2887 2887 2888 2889 2889 2890 2891 2892 2892 2893 2893 2894 2895 2895 2895 2896 2896 2897 2897 2898 2899 2898 2898 2898 2898 2897 2897 2896 2895 2894 2893 2893 2893 2891 2890 2889
2888 2889 2890 2890 2890 2890 2891 2891 2890 2890 2890 2889 2889 2888 2888 2888 2888 2889 2889 2889 2890 2890 2891 2891 2892 2892 2893 2893 2894 2894 2894 2894 2894 2895 2896 2896 2896 2896 2896 2895 2895 2894 2894 2893 2893 2892 2891 2891 2890 2889 2888 2887 2885 2884